• In Latvia
  • List of Countries
  • For 7 days
  • Water Temperature
  • Satellite Maps
  • Weather Map
  • Weather Widgets
  • user-avatar
    Login

    Hourly Weather Strenci

    Today, 26 April, Thursday

    Time Temperature Precipitation Wind Pressure Humidity
    00:00 +7°C° 0.5 mm 1 mps 744 mmHg 94%
    01:00 +5°C° 0.5 mm 2 mps 744 mmHg 94%
    02:00 +5°C° 0.5 mm 2 mps 744 mmHg 94%
    03:00 +5°C° 0.1 mm 2 mps 744 mmHg 94%
    04:00 +4°C° 0.1 mm 2 mps 744 mmHg 94%
    05:00 +3°C° 0.1 mm 3 mps 744 mmHg 95%
    06:00 +3°C° 0 mm 3 mps 745 mmHg 93%
    07:00 +4°C° 0 mm 3 mps 745 mmHg 91%
    08:00 +5°C° 0 mm 4 mps 746 mmHg 89%
    09:00 +6°C° 0 mm 4 mps 746 mmHg 83%
    10:00 +7°C° 0 mm 5 mps 746 mmHg 78%
    11:00 +8°C° 0 mm 5 mps 747 mmHg 73%
    12:00 +9°C° 0.2 mm 5 mps 747 mmHg 68%
    13:00 +9°C° 0.2 mm 6 mps 747 mmHg 63%
    14:00 +10°C° 0.2 mm 6 mps 747 mmHg 59%
    15:00 +10°C° 0.1 mm 5 mps 747 mmHg 59%
    16:00 +10°C° 0.1 mm 5 mps 748 mmHg 60%
    17:00 +9°C° 0.1 mm 5 mps 748 mmHg 61%
    18:00 +8°C° 0 mm 4 mps 748 mmHg 69%
    19:00 +7°C° 0 mm 3 mps 749 mmHg 76%
    20:00 +6°C° 0 mm 2 mps 749 mmHg 84%
    21:00 +5°C° 0 mm 2 mps 749 mmHg 87%
    22:00 +5°C° 0 mm 2 mps 750 mmHg 89%
    23:00 +3°C° 0 mm 3 mps 750 mmHg 92%

    Tomorrow, 27 April, Friday

    Time Temperature Precipitation Wind Pressure Humidity
    00:00 +3°C° 0 mm 3 mps 750 mmHg 93%
    01:00 +3°C° 0 mm 3 mps 750 mmHg 95%
    02:00 +3°C° 0 mm 3 mps 750 mmHg 96%
    03:00 +3°C° 0 mm 3 mps 750 mmHg 95%
    04:00 +3°C° 0 mm 3 mps 750 mmHg 95%
    05:00 +3°C° 0 mm 3 mps 751 mmHg 94%
    06:00 +3°C° 0 mm 3 mps 751 mmHg 92%
    07:00 +4°C° 0 mm 3 mps 751 mmHg 90%
    08:00 +5°C° 0 mm 3 mps 751 mmHg 87%
    09:00 +5°C° 0.1 mm 4 mps 752 mmHg 85%
    10:00 +6°C° 0.1 mm 4 mps 752 mmHg 82%
    11:00 +7°C° 0.1 mm 4 mps 752 mmHg 79%
    12:00 +7°C° 0.1 mm 4 mps 752 mmHg 76%
    13:00 +8°C° 0.1 mm 4 mps 753 mmHg 73%
    14:00 +10°C° 0.1 mm 4 mps 753 mmHg 70%
    15:00 +10°C° 0.2 mm 4 mps 753 mmHg 68%
    16:00 +10°C° 0.2 mm 4 mps 753 mmHg 65%
    17:00 +10°C° 0.2 mm 4 mps 753 mmHg 63%
    18:00 +8°C° 0 mm 3 mps 754 mmHg 70%
    19:00 +7°C° 0 mm 3 mps 754 mmHg 77%
    20:00 +5°C° 0 mm 2 mps 755 mmHg 84%
    21:00 +5°C° 0 mm 2 mps 755 mmHg 87%
    22:00 +4°C° 0 mm 2 mps 756 mmHg 89%
    23:00 +3°C° 0 mm 2 mps 756 mmHg 92%

    Day after tomorrow, 28 April, Saturday

    Time Temperature Precipitation Wind Pressure Humidity
    00:00 +3°C° 0 mm 2 mps 756 mmHg 93%
    01:00 +3°C° 0 mm 2 mps 756 mmHg 94%
    02:00 +2°C° 0 mm 2 mps 756 mmHg 96%
    03:00 +2°C° 0 mm 2 mps 757 mmHg 96%
    04:00 +2°C° 0 mm 2 mps 757 mmHg 96%
    05:00 +2°C° 0 mm 2 mps 757 mmHg 96%
    06:00 +4°C° 0 mm 2 mps 757 mmHg 89%
    07:00 +5°C° 0 mm 3 mps 757 mmHg 81%
    08:00 +7°C° 0 mm 3 mps 757 mmHg 74%
    09:00 +9°C° 0 mm 3 mps 757 mmHg 70%
    10:00 +10°C° 0 mm 3 mps 757 mmHg 66%
    11:00 +11°C° 0 mm 3 mps 757 mmHg 62%
    12:00 +11°C° 0.4 mm 3 mps 756 mmHg 67%
    13:00 +12°C° 0.4 mm 2 mps 756 mmHg 72%
    14:00 +10°C° 0.4 mm 2 mps 756 mmHg 76%
    15:00 +12°C° 0.2 mm 2 mps 755 mmHg 77%
    16:00 +12°C° 0.2 mm 2 mps 754 mmHg 78%
    17:00 +11°C° 0.2 mm 3 mps 754 mmHg 79%
    18:00 +11°C° 0.3 mm 3 mps 753 mmHg 83%
    19:00 +10°C° 0.3 mm 3 mps 753 mmHg 87%
    20:00 +10°C° 0.3 mm 3 mps 752 mmHg 90%
    21:00 +10°C° 0.4 mm 3 mps 752 mmHg 92%
    22:00 +10°C° 0.4 mm 3 mps 751 mmHg 94%
    23:00 +9°C° 0.4 mm 3 mps 751 mmHg 96%

    29 April, Sunday

    Time Temperature Precipitation Wind Pressure Humidity
    00:00 +8°C° 0.1 mm 4 mps 751 mmHg 95%
    01:00 +8°C° 0.1 mm 4 mps 751 mmHg 95%
    02:00 +7°C° 0.1 mm 4 mps 751 mmHg 95%
    03:00 +7°C° 0 mm 4 mps 752 mmHg 94%
    04:00 +6°C° 0 mm 4 mps 752 mmHg 94%
    05:00 +6°C° 0 mm 4 mps 752 mmHg 93%
    06:00 +6°C° 0.1 mm 4 mps 753 mmHg 93%
    07:00 +6°C° 0.1 mm 4 mps 754 mmHg 92%
    08:00 +6°C° 0.1 mm 4 mps 754 mmHg 92%
    09:00 +7°C° 0 mm 4 mps 755 mmHg 90%
    10:00 +7°C° 0 mm 4 mps 756 mmHg 88%
    11:00 +7°C° 0 mm 4 mps 756 mmHg 87%
    12:00 +8°C° 0 mm 4 mps 756 mmHg 84%
    13:00 +8°C° 0 mm 4 mps 757 mmHg 82%
    14:00 +10°C° 0 mm 4 mps 757 mmHg 79%
    15:00 +11°C° 0 mm 3 mps 757 mmHg 73%
    16:00 +11°C° 0 mm 3 mps 757 mmHg 66%
    17:00 +12°C° 0 mm 3 mps 757 mmHg 60%
    18:00 +10°C° 0 mm 2 mps 757 mmHg 66%
    19:00 +8°C° 0 mm 2 mps 758 mmHg 71%
    20:00 +7°C° 0 mm 1 mps 758 mmHg 77%
    21:00 +6°C° 0 mm 1 mps 758 mmHg 78%
    22:00 +6°C° 0 mm 1 mps 759 mmHg 79%
    23:00 +5°C° 0 mm 1 mps 759 mmHg 80%

    30 April, Monday

    Time Temperature Precipitation Wind Pressure Humidity
    00:00 +4°C° 0 mm 1 mps 759 mmHg 80%
    01:00 +3°C° 0 mm 0 mps 759 mmHg 79%
    02:00 +3°C° 0 mm 0 mps 759 mmHg 79%
    03:00 +4°C° 0 mm 1 mps 759 mmHg 79%
    04:00 +4°C° 0 mm 1 mps 759 mmHg 80%
    05:00 +4°C° 0 mm 1 mps 759 mmHg 80%
    06:00 +6°C° 0 mm 1 mps 759 mmHg 75%
    07:00 +7°C° 0 mm 2 mps 759 mmHg 70%
    08:00 +9°C° 0 mm 2 mps 759 mmHg 65%
    09:00 +12°C° 0 mm 2 mps 759 mmHg 62%
    10:00 +13°C° 0 mm 3 mps 758 mmHg 58%
    11:00 +16°C° 0 mm 3 mps 758 mmHg 55%
    12:00 +17°C° 0 mm 3 mps 758 mmHg 55%
    13:00 +17°C° 0 mm 3 mps 757 mmHg 54%
    14:00 +18°C° 0 mm 3 mps 757 mmHg 54%
    15:00 +17°C° 0.2 mm 3 mps 756 mmHg 60%
    16:00 +16°C° 0.2 mm 3 mps 756 mmHg 65%
    17:00 +14°C° 0.2 mm 3 mps 756 mmHg 71%
    18:00 +14°C° 0.7 mm 3 mps 756 mmHg 76%
    19:00 +13°C° 0.7 mm 4 mps 755 mmHg 81%
    20:00 +12°C° 0.7 mm 4 mps 755 mmHg 85%
    21:00 +12°C° 0.1 mm 4 mps 755 mmHg 86%
    22:00 +11°C° 0.1 mm 4 mps 754 mmHg 87%
    23:00 +11°C° 0.1 mm 4 mps 754 mmHg 88%

    1 May, Tuesday

    Time Temperature Precipitation Wind Pressure Humidity
    00:00 +11°C° 0.3 mm 4 mps 753 mmHg 90%
    01:00 +11°C° 0.3 mm 3 mps 753 mmHg 92%
    02:00 +10°C° 0.3 mm 3 mps 752 mmHg 94%
    03:00 +10°C° 0.1 mm 3 mps 752 mmHg 95%
    04:00 +11°C° 0.1 mm 3 mps 752 mmHg 96%
    05:00 +12°C° 0.1 mm 2 mps 752 mmHg 97%
    06:00 +12°C° 0.7 mm 2 mps 753 mmHg 96%
    07:00 +13°C° 0.7 mm 2 mps 753 mmHg 95%
    08:00 +14°C° 0.7 mm 2 mps 753 mmHg 95%
    09:00 +13°C° 0 mm 3 mps 754 mmHg 92%
    10:00 +13°C° 0 mm 3 mps 754 mmHg 90%
    11:00 +13°C° 0 mm 4 mps 755 mmHg 87%
    12:00 +13°C° 0 mm 4 mps 755 mmHg 81%
    13:00 +13°C° 0 mm 4 mps 756 mmHg 75%
    14:00 +14°C° 0 mm 4 mps 757 mmHg 68%
    15:00 +14°C° 0 mm 4 mps 757 mmHg 62%
    16:00 +14°C° 0 mm 4 mps 757 mmHg 56%
    17:00 +14°C° 0 mm 4 mps 758 mmHg 50%
    18:00 +12°C° 0 mm 3 mps 758 mmHg 57%
    19:00 +10°C° 0 mm 2 mps 759 mmHg 65%
    20:00 +9°C° 0 mm 1 mps 759 mmHg 72%
    21:00 +9°C° 0 mm 1 mps 760 mmHg 74%
    22:00 +8°C° 0 mm 1 mps 760 mmHg 76%
    23:00 +7°C° 0 mm 0 mps 760 mmHg 78%
    Show more